Powrót do katalogu

STARLINK-30068

AktywnyŁącznośćVLEO
NORAD 56698·PAYLOAD·🇺🇸 United States

Wystrzelony May 19, 2023 z Cape Canaveral Space Force Station

Loading…

Następne Przeloty (najbliższe 24 godziny)

TLE

ŚwieżeSource: CelesTrak SupGP

Epoka: Sep 14, 2026, 21:26 UTC

1 56698C 23067L   26257.89354167  .00015430  00000+0  55905-3 0  2573
2 56698  43.0018 271.3658 0001421 260.6356 146.0961 15.27560128    15

Śledź STARLINK-30068 w czasie rzeczywistym z AllMySat

Download on the App Store